Tracking 29892 objects as of 21-Nov-2024
HD Live streaming from Space Station
objects crossing your sky now

OPS 4682 DEB

Track OPS 4682 DEB now!
10-day predictions


NORAD ID: 29059
Int'l Code: 1965-027BJ
Perigee: 1,270.5 km
Apogee: 1,315.0 km
Inclination: 90.2 °
Period: 111.3 minutes
Semi major axis: 7663 km
RCS: 0.0242 m2 (small)
Launch date: April 3, 1965
Source: United States (US)
Launch site: AIR FORCE WESTERN TEST RANGE (AFWTR)

Note: This is SATELLITE DEBRIS
Your satellite tracking list
Your tracking list is empty




NASA's NSSDC Master Catalog

Two Line Element Set (TLE):
1 29059U 65027BJ  24325.54766164  .00000286  00000-0  10086-2 0  9993
2 29059  90.2376 353.8430 0029037 290.3557 232.3994 12.94019134 81401
Source of the keplerian elements: AFSPC